Location: Ferchesar
(52.6477°N, 12.4298°E)
Time: 02:01:34
(UTC+01:00)

BUGSAT 1 - Pass Details

Date: 30 October 2021
Orbit: 558 x 601 km, 98.1° (Epoch: 01 December)

Event Time Altitude Azimuth Distance (km) Brightness Sun altitude
Rises 06:00:00 0° 18° (NNE) 2,763 ? -19.1°
Reaches altitude 10° 06:02:11 10° 23° (NNE) 1,865 ? -18.8°
Maximum altitude 06:06:08 54° 101° (ESE) 694 ? -18.2°
Drops below altitude 10° 06:10:06 10° 180° (S) 1,868 ? -17.6°
Sets 06:12:17 0° 185° (S) 2,767 ? -17.3°
